EW5089 Weather Reports


Display with metric or nautical units.
time (UTC)temp
F
wind
direction
speed
MPH
gust
MPH
rain 1hr
in
rain 24hr
in
rain mn
in
humidity
%
barometer
mb
20200227204536 58 273 2.0 7.0 0.00 0.00 0.00 32 1029.5
20200227203035 59 339 3.0 7.0 0.00 0.00 0.00 32 1029.9
20200227201547 57 247 3.0 7.0 0.00 0.00 0.00 33 1030.1
20200227200042 56 260 2.0 6.0 0.00 0.00 0.00 33 1030.2
20200227194544 56 265 3.0 8.0 0.00 0.00 0.00 35 1030.5
20200227193033 55 296 1.0 7.0 0.00 0.00 0.00 36 1030.7
20200227191509 54 182 3.0 7.0 0.00 0.00 0.00 37 1030.7
20200227190019 53 232 4.0 8.0 0.00 0.00 0.00 40 1030.8
20200227184503 51 227 2.0 6.0 0.00 0.00 0.00 44 1030.9
20200227183157 49 281 3.0 11.0 0.00 0.00 0.00 46 1031.0
20200227181726 48 254 3.0 10.0 0.00 0.00 0.00 49 1031.1
20200227180112 47 163 3.0 9.0 0.00 0.00 0.00 52 1031.2
20200227174613 46 194 5.0 9.0 0.00 0.00 0.00 54 1031.2
20200227173115 44 238 1.0 6.0 0.00 0.00 0.00 59 1031.2
20200227171610 43 251 2.0 8.0 0.00 0.00 0.00 64 1031.3
20200227170118 41 262 2.0 6.0 0.00 0.00 0.00 66 1031.5
20200227164603 39 224 1.0 4.0 0.00 0.00 0.00 70 1031.6
20200227163024 36 244 0.0 5.0 0.00 0.00 0.00 74 1031.5
20200227161527 35 239 1.0 8.0 0.00 0.00 0.00 77 1031.4
20200227160045 33 238 2.0 7.0 0.00 0.00 0.00 80 1031.3
20200227154522 31 229 2.0 7.0 0.00 0.00 0.00 85 1031.5
20200227153012 28 261 3.0 6.0 0.00 0.00 0.00 89 1031.5
20200227151539 26 240 2.0 3.0 0.00 0.00 0.00 87 1031.3
20200227150007 26 240 0.0 2.0 0.00 0.00 0.00 89 1030.9
20200227144504 26 240 1.0 2.0 0.00 0.00 0.00 86 1030.8
20200227143002 26 240 0.0 2.0 0.00 0.00 0.00 84 1030.9
20200227140134 28 240 0.0 1.0 0.00 0.00 0.00 84 1030.9
20200227134720 29 240 1.0 2.0 0.00 0.00 0.00 87 1030.9
20200227133210 29 240 1.0 3.0 0.00 0.00 0.00 87 1031.0
20200227131706 28 240 2.0 4.0 0.00 0.00 0.00 89 1031.1
20200227130209 27 223 1.0 3.0 0.00 0.00 0.00 89 1031.0
20200227124655 27 208 0.0 2.0 0.00 0.00 0.00 86 1031.0
20200227123209 27 208 1.0 3.0 0.00 0.00 0.00 88 1030.9
20200227121724 26 208 1.0 2.0 0.00 0.00 0.00 85 1031.0
20200227120149 27 208 2.0 4.0 0.00 0.00 0.00 85 1030.9
20200227114643 27 208 2.0 4.0 0.00 0.00 0.00 86 1031.0
20200227113148 27 277 2.0 4.0 0.00 0.00 0.00 84 1031.1
20200227111645 27 277 3.0 5.0 0.00 0.00 0.00 84 1031.2
20200227110052 28 229 1.0 2.0 0.00 0.00 0.00 80 1031.1
20200227104558 29 229 1.0 2.0 0.00 0.00 0.00 83 1031.0
20200227103127 29 229 1.0 3.0 0.00 0.00 0.00 84 1030.9
20200227101645 28 229 1.0 2.0 0.00 0.00 0.00 81 1030.9
20200227100130 29 229 0.0 2.0 0.00 0.00 0.00 81 1030.9
20200227094547 29 229 0.0 3.0 0.00 0.00 0.00 79 1031.0
20200227093111 29 229 1.0 3.0 0.00 0.00 0.00 83 1031.2
20200227091629 28 229 1.0 3.0 0.00 0.00 0.00 85 1031.0
20200227090031 27 229 1.0 3.0 0.00 0.00 0.00 84 1030.8
20200227084651 27 229 1.0 2.0 0.00 0.00 0.00 82 1030.7
20200227083045 28 229 1.0 3.0 0.00 0.00 0.00 83 1030.5
20200227081602 28 224 1.0 3.0 0.00 0.00 0.00 82 1030.3
20200227080021 28 224 0.0 2.0 0.00 0.00 0.00 80 1030.4
20200227074531 28 224 1.0 4.0 0.00 0.00 0.00 80 1030.5
20200227073051 28 223 1.0 3.0 0.00 0.00 0.00 79 1030.5
20200227071544 28 223 0.0 3.0 0.00 0.00 0.00 79 1030.4
20200227070046 28 223 1.0 3.0 0.00 0.00 0.00 79 1030.6
20200227064513 29 178 0.0 0.0 0.00 0.00 0.00 77 1030.5
20200227063038 29 178 0.0 0.0 0.00 0.00 0.00 76 1030.6
20200227061517 30 178 0.0 0.0 0.00 0.00 0.00 75 1030.7
20200227060024 30 178 0.0 0.0 0.00 0.00 0.00 75 1030.6
20200227054516 30 178 0.0 0.0 0.00 0.00 0.00 73 1030.7
20200227053008 31 178 0.0 0.0 0.00 0.00 0.00 70 1030.5
20200227051506 32 178 0.0 0.0 0.00 0.00 0.00 68 1030.5
20200227050010 33 178 0.0 1.0 0.00 0.00 0.00 67 1030.4
20200227044516 34 178 1.0 3.0 0.00 0.00 0.00 65 1030.3
20200227043006 35 178 1.0 2.0 0.00 0.00 0.00 63 1029.9
20200227041501 36 178 1.0 3.0 0.00 0.00 0.00 62 1029.7
20200227040001 37 160 1.0 2.0 0.00 0.00 0.00 59 1029.5
20200227034608 38 160 2.0 5.0 0.00 0.00 0.00 57 1029.5
20200227033125 40 99 2.0 5.0 0.00 0.00 0.00 53 1029.5
20200227031744 42 265 0.0 1.0 0.00 0.00 0.00 51 1029.4
20200227030121 43 265 2.0 3.0 0.00 0.00 0.00 49 1029.3
20200227024726 44 300 0.0 2.0 0.00 0.00 0.00 47 1029.2
20200227023142 46 300 2.0 3.0 0.00 0.00 0.00 44 1029.1
20200227021657 47 300 2.0 4.0 0.00 0.00 0.00 41 1028.9
20200227020148 49 300 3.0 5.0 0.00 0.00 0.00 37 1028.8
20200227014657 51 315 3.0 9.0 0.00 0.00 0.00 35 1028.8
20200227013142 53 317 3.0 8.0 0.00 0.00 0.00 34 1028.7
20200227011627 55 292 3.0 9.0 0.00 0.00 0.00 33 1028.5
20200227010202 56 304 4.0 9.0 0.00 0.00 0.00 32 1028.5
20200227004632 57 320 5.0 9.0 0.00 0.00 0.00 32 1028.5
20200227003145 58 31 2.0 9.0 0.00 0.00 0.00 33 1028.4
20200227001640 57 322 4.0 9.0 0.00 0.00 0.00 34 1028.3
20200227000128 58 325 4.0 14.0 0.00 0.00 0.00 33 1028.3
20200226234611 58 15 3.0 9.0 0.00 0.00 0.00 33 1028.2
20200226233138 59 19 4.0 11.0 0.00 0.00 0.00 33 1028.2
20200226231642 59 278 3.0 13.0 0.00 0.00 0.00 33 1028.2
20200226230214 59 318 6.0 11.0 0.00 0.00 0.00 33 1028.3
20200226224623 59 360 6.0 11.0 0.00 0.00 0.00 33 1028.2
20200226223146 59 336 6.0 11.0 0.00 0.00 0.00 36 1028.2
20200226221607 59 311 6.0 13.0 0.00 0.00 0.00 37 1028.2
20200226220129 57 311 3.0 8.0 0.00 0.00 0.00 39 1028.3
20200226214619 58 19 3.0 10.0 0.00 0.00 0.00 38 1028.4
20200226213124 57 303 4.0 11.0 0.00 0.00 0.00 39 1028.5
20200226211557 57 16 4.0 10.0 0.00 0.00 0.00 39 1028.5
20200226210037 57 296 5.0 10.0 0.00 0.00 0.00 40 1028.7